• în România
  • Lista ţărilor
  • Pe 7 zile
  • Temperatura apei
  • Hartă satelitară
  • Meteo pe hartă
  • Widget-uri
  • user-avatar
    Intrare

    Meteo pe oră la Bolshaya Ivanovka

    Astăzi, 24 Iunie, Duminică

    Timp Temperatura Precipitaţii Vânt Presiune Umiditate
    00:00 +21°C° 0 mm 1 m/s 735 mmHg 63%
    01:00 +20°C° 0 mm 1 m/s 735 mmHg 64%
    02:00 +20°C° 0 mm 1 m/s 735 mmHg 66%
    03:00 +19°C° 0 mm 2 m/s 734 mmHg 64%
    04:00 +19°C° 0 mm 2 m/s 735 mmHg 65%
    05:00 +20°C° 0 mm 2 m/s 735 mmHg 66%
    06:00 +20°C° 0 mm 2 m/s 735 mmHg 68%
    07:00 +22°C° 0 mm 3 m/s 735 mmHg 63%
    08:00 +25°C° 0 mm 3 m/s 735 mmHg 59%
    09:00 +26°C° 0 mm 4 m/s 735 mmHg 55%
    10:00 +27°C° 0 mm 4 m/s 735 mmHg 51%
    11:00 +29°C° 0 mm 4 m/s 735 mmHg 47%
    12:00 +30°C° 0 mm 4 m/s 735 mmHg 43%
    13:00 +30°C° 0 mm 4 m/s 735 mmHg 42%
    14:00 +30°C° 0 mm 4 m/s 735 mmHg 41%
    15:00 +32°C° 0 mm 4 m/s 735 mmHg 40%
    16:00 +30°C° 0 mm 3 m/s 735 mmHg 44%
    17:00 +30°C° 0 mm 3 m/s 735 mmHg 47%
    18:00 +29°C° 0 mm 3 m/s 735 mmHg 51%
    19:00 +27°C° 0 mm 3 m/s 735 mmHg 53%
    20:00 +26°C° 0 mm 3 m/s 735 mmHg 55%
    21:00 +24°C° 0 mm 3 m/s 735 mmHg 56%
    22:00 +22°C° 0 mm 3 m/s 735 mmHg 58%
    23:00 +22°C° 0 mm 3 m/s 735 mmHg 59%

    Mâine, 25 Iunie, Luni

    Timp Temperatura Precipitaţii Vânt Presiune Umiditate
    00:00 +21°C° 0 mm 3 m/s 736 mmHg 60%
    01:00 +21°C° 0 mm 3 m/s 736 mmHg 62%
    02:00 +20°C° 0 mm 2 m/s 736 mmHg 64%
    03:00 +20°C° 0 mm 2 m/s 736 mmHg 66%
    04:00 +20°C° 0 mm 2 m/s 736 mmHg 67%
    05:00 +21°C° 0 mm 2 m/s 736 mmHg 68%
    06:00 +21°C° 0 mm 2 m/s 737 mmHg 69%
    07:00 +24°C° 0 mm 2 m/s 737 mmHg 65%
    08:00 +25°C° 0 mm 3 m/s 737 mmHg 60%
    09:00 +27°C° 0 mm 3 m/s 737 mmHg 56%
    10:00 +28°C° 0 mm 3 m/s 737 mmHg 52%
    11:00 +29°C° 0 mm 3 m/s 737 mmHg 48%
    12:00 +31°C° 0 mm 3 m/s 738 mmHg 44%
    13:00 +31°C° 0 mm 3 m/s 738 mmHg 41%
    14:00 +33°C° 0 mm 3 m/s 737 mmHg 39%
    15:00 +34°C° 0 mm 3 m/s 737 mmHg 36%
    16:00 +33°C° 0 mm 3 m/s 737 mmHg 41%
    17:00 +31°C° 0 mm 3 m/s 737 mmHg 46%
    18:00 +31°C° 0 mm 2 m/s 737 mmHg 51%
    19:00 +28°C° 0 mm 2 m/s 737 mmHg 59%
    20:00 +26°C° 0 mm 2 m/s 738 mmHg 66%
    21:00 +24°C° 0 mm 2 m/s 738 mmHg 73%
    22:00 +23°C° 0 mm 2 m/s 738 mmHg 75%
    23:00 +23°C° 0 mm 2 m/s 738 mmHg 76%

    Poimâine, 26 Iunie, Marţi

    Timp Temperatura Precipitaţii Vânt Presiune Umiditate
    00:00 +22°C° 0 mm 1 m/s 738 mmHg 78%
    01:00 +22°C° 0 mm 1 m/s 738 mmHg 76%
    02:00 +21°C° 0 mm 1 m/s 738 mmHg 75%
    03:00 +21°C° 0 mm 1 m/s 738 mmHg 74%
    04:00 +22°C° 0 mm 1 m/s 738 mmHg 72%
    05:00 +23°C° 0 mm 1 m/s 738 mmHg 70%
    06:00 +23°C° 0 mm 1 m/s 738 mmHg 68%
    07:00 +25°C° 0 mm 2 m/s 738 mmHg 63%
    08:00 +27°C° 0 mm 2 m/s 738 mmHg 58%
    09:00 +28°C° 0 mm 3 m/s 739 mmHg 53%
    10:00 +30°C° 0 mm 3 m/s 739 mmHg 50%
    11:00 +31°C° 0 mm 3 m/s 739 mmHg 47%
    12:00 +33°C° 0 mm 3 m/s 739 mmHg 44%
    13:00 +33°C° 0 mm 3 m/s 738 mmHg 43%
    14:00 +33°C° 0 mm 3 m/s 738 mmHg 42%
    15:00 +34°C° 0 mm 3 m/s 738 mmHg 41%
    16:00 +33°C° 0 mm 3 m/s 738 mmHg 45%
    17:00 +33°C° 0 mm 3 m/s 738 mmHg 48%
    18:00 +31°C° 0 mm 2 m/s 738 mmHg 52%
    19:00 +29°C° 0 mm 2 m/s 738 mmHg 55%
    20:00 +27°C° 0 mm 2 m/s 738 mmHg 58%
    21:00 +26°C° 0 mm 2 m/s 738 mmHg 62%
    22:00 +25°C° 0 mm 2 m/s 738 mmHg 65%
    23:00 +24°C° 0 mm 2 m/s 738 mmHg 69%

    27 Iunie, Miercuri

    Timp Temperatura Precipitaţii Vânt Presiune Umiditate
    00:00 +23°C° 0 mm 2 m/s 738 mmHg 72%
    01:00 +23°C° 0 mm 2 m/s 738 mmHg 76%
    02:00 +21°C° 0 mm 2 m/s 738 mmHg 79%
    03:00 +21°C° 0 mm 2 m/s 738 mmHg 83%
    04:00 +21°C° 0 mm 2 m/s 738 mmHg 82%
    05:00 +22°C° 0 mm 3 m/s 738 mmHg 82%
    06:00 +24°C° 0 mm 3 m/s 738 mmHg 81%
    07:00 +25°C° 0,1 mm 3 m/s 738 mmHg 77%
    08:00 +27°C° 0,1 mm 3 m/s 738 mmHg 73%
    09:00 +28°C° 0,1 mm 3 m/s 738 mmHg 69%
    10:00 +29°C° 0,1 mm 3 m/s 738 mmHg 64%
    11:00 +30°C° 0,1 mm 3 m/s 738 mmHg 59%
    12:00 +31°C° 0,1 mm 3 m/s 738 mmHg 54%
    13:00 +31°C° 1 mm 3 m/s 738 mmHg 54%
    14:00 +31°C° 1 mm 3 m/s 738 mmHg 54%
    15:00 +31°C° 1 mm 3 m/s 738 mmHg 55%
    16:00 +30°C° 0 mm 3 m/s 738 mmHg 59%
    17:00 +30°C° 0 mm 3 m/s 737 mmHg 62%
    18:00 +29°C° 0 mm 3 m/s 737 mmHg 66%
    19:00 +28°C° 0 mm 3 m/s 737 mmHg 71%
    20:00 +26°C° 0 mm 3 m/s 738 mmHg 76%
    21:00 +24°C° 0 mm 3 m/s 738 mmHg 81%
    22:00 +24°C° 0 mm 3 m/s 738 mmHg 83%
    23:00 +22°C° 0 mm 3 m/s 738 mmHg 85%

    28 Iunie, Joi

    Timp Temperatura Precipitaţii Vânt Presiune Umiditate
    00:00 +23°C° 0 mm 2 m/s 738 mmHg 87%
    01:00 +21°C° 0,6 mm 2 m/s 738 mmHg 89%
    02:00 +21°C° 0,6 mm 2 m/s 738 mmHg 90%
    03:00 +20°C° 0,6 mm 2 m/s 738 mmHg 92%
    04:00 +21°C° 0 mm 2 m/s 738 mmHg 90%
    05:00 +23°C° 0 mm 2 m/s 738 mmHg 88%
    06:00 +23°C° 0 mm 2 m/s 738 mmHg 86%
    07:00 +25°C° 0,2 mm 2 m/s 738 mmHg 80%
    08:00 +26°C° 0,2 mm 3 m/s 739 mmHg 74%
    09:00 +28°C° 0,2 mm 3 m/s 739 mmHg 68%
    10:00 +29°C° 0,1 mm 3 m/s 739 mmHg 63%
    11:00 +30°C° 0,1 mm 2 m/s 738 mmHg 58%
    12:00 +30°C° 0,1 mm 2 m/s 738 mmHg 53%
    13:00 +31°C° 0 mm 2 m/s 738 mmHg 52%
    14:00 +31°C° 0 mm 2 m/s 738 mmHg 50%
    15:00 +31°C° 0 mm 2 m/s 738 mmHg 48%
    16:00 +31°C° 0 mm 3 m/s 738 mmHg 53%
    17:00 +30°C° 0 mm 3 m/s 738 mmHg 58%
    18:00 +29°C° 0 mm 3 m/s 738 mmHg 62%
    19:00 +27°C° 0 mm 3 m/s 738 mmHg 68%
    20:00 +26°C° 0 mm 3 m/s 738 mmHg 73%
    21:00 +24°C° 0 mm 3 m/s 738 mmHg 78%
    22:00 +22°C° 0 mm 3 m/s 738 mmHg 80%
    23:00 +22°C° 0 mm 3 m/s 738 mmHg 82%

    29 Iunie, Vineri

    Timp Temperatura Precipitaţii Vânt Presiune Umiditate
    00:00 +21°C° 0 mm 3 m/s 738 mmHg 83%
    01:00 +20°C° 0 mm 3 m/s 738 mmHg 83%
    02:00 +20°C° 0 mm 3 m/s 738 mmHg 83%
    03:00 +19°C° 0 mm 3 m/s 738 mmHg 83%
    04:00 +20°C° 0 mm 3 m/s 738 mmHg 81%
    05:00 +20°C° 0 mm 4 m/s 738 mmHg 79%
    06:00 +21°C° 0 mm 4 m/s 738 mmHg 77%
    07:00 +22°C° 0 mm 4 m/s 738 mmHg 72%
    08:00 +25°C° 0 mm 4 m/s 738 mmHg 68%
    09:00 +26°C° 0 mm 4 m/s 739 mmHg 63%
    10:00 +27°C° 0 mm 4 m/s 738 mmHg 59%
    11:00 +28°C° 0 mm 4 m/s 738 mmHg 54%
    12:00 +29°C° 0 mm 4 m/s 738 mmHg 50%
    13:00 +29°C° 0 mm 4 m/s 738 mmHg 48%
    14:00 +30°C° 0 mm 4 m/s 738 mmHg 47%
    15:00 +30°C° 0 mm 4 m/s 738 mmHg 45%
    16:00 +29°C° 0 mm 4 m/s 738 mmHg 49%
    17:00 +29°C° 0 mm 4 m/s 738 mmHg 53%
    18:00 +28°C° 0 mm 3 m/s 738 mmHg 57%
    19:00 +26°C° 0 mm 3 m/s 737 mmHg 60%
    20:00 +23°C° 0 mm 4 m/s 737 mmHg 63%
    21:00 +21°C° 0 mm 4 m/s 737 mmHg 66%
    22:00 +21°C° 0 mm 4 m/s 737 mmHg 69%
    23:00 +20°C° 0 mm 4 m/s 737 mmHg 72%
    Arată mai mult